Regional Weather Roundup
Issued by NWS

Home | Current Version | Previous Version | Graphics & Text | Print | Product List | Glossary On
Versions: 1 2 3 4 5 6 7 8 9 10 11 12 13 14 15 16 17 18 19 20 21 22 23 24 25 26 27 28 29 30 31 32 33 34 35 36 37 38 39 40 41 42 43 44 45 46 47 48 49 50
000
ASUS43 KMKX 051911
RWRWI

WISCONSIN REGIONAL WEATHER ROUNDUP
NATIONAL WEATHER SERVICE MILWAUKEE/SULLIVAN WI
200 PM CDT TUE MAY 05 2015

NOTE: "FAIR" INDICATES FEW OR NO CLOUDS BELOW 12,000 FEET WITH NO
SIGNIFICANT WEATHER AND/OR OBSTRUCTIONS TO VISIBILITY.

WIZ001-002-006>008-014>016-023>028-052000-
NORTHWEST WISCONSIN

CITY           SKY/WX    TMP DP  RH WIND       PRES   REMARKS
SUPERIOR ARPT  SUNNY     54  32  43 NE10      30.22F
ASHLAND        SUNNY     63  44  50 N14       30.23F
HAYWARD        SUNNY     71  22  15 S10G20    30.21F
SIREN          SUNNY     73  26  17 SE13G30   30.20S
CUMBERLAND     SUNNY     68  28  22 SE17G23   30.21F
RICE LAKE      SUNNY     71  27  19 SE16G24   30.23S
CHETEK         SUNNY     69  34  27 MISG      30.22F
LADYSMITH      SUNNY     70  28  20 SE12G21   30.25F
EAU CLAIRE     MOSUNNY   69  31  24 SE12G21   30.22S
MENOMONIE      MOSUNNY   67  37  32 E14G21    30.22S
NEW RICHMOND   SUNNY     71  32  24 SE15G22   30.19F
OSCEOLA        SUNNY     71  37  28 E16G22    30.21F
$$

WIZ003>005-009-010-017-018-052000-
NORTH CENTRAL WISCONSIN

CITY           SKY/WX    TMP DP  RH WIND       PRES   REMARKS
MANITOWISH WTR SUNNY     67  33  27 SW8G20    30.25F
ARBOR VITAE    SUNNY     69  31  23 S10G18    30.25F
WOODRUFF       SUNNY     69  31  23 S10G18    30.25F
RHINELANDER    SUNNY     69  30  23 SE12      30.27F
EAGLE RIVER    SUNNY     68  24  19 E6        30.26F
LAND O LAKES   SUNNY     70  22  16 E8        30.26F
PHILLIPS       SUNNY     68  30  24 SE12      30.24F
TOMAHAWK       SUNNY     68  30  24 SE5       30.27F
MEDFORD        SUNNY     67  26  21 E10G22    30.25F
MERRILL        SUNNY     68  26  20 SE10G17   30.27F
$$

WIZ029-030-035-036-043>047-052000-
CENTRAL WISCONSIN

CITY           SKY/WX    TMP DP  RH WIND       PRES   REMARKS
WAUSAU         MOSUNNY   68  23  18 E16G23    30.25F
MOSINEE        SUNNY     66  19  16 E12G20    30.28F
MARSHFIELD     PTSUNNY   65  27  23 E17G24    30.25F
STEVENS POINT    N/A    N/A N/A N/A MISG        N/A
WAUPACA        MOSUNNY   66  29  25 E14       30.29F
WAUTOMA        PTSUNNY   62  41  46 E8        30.29F
WISC RAPIDS    PTSUNNY   64  31  28 SE15      30.27F
CAMP DOUGLAS   CLOUDY    61  45  55 E14       30.24F
$$

WIZ011>013-019>022-031-037>040-048>050-052000-
NORTHEAST WISCONSIN

CITY           SKY/WX    TMP DP  RH WIND       PRES   REMARKS
ANTIGO         SUNNY     65  31  27 SE12G18   30.29S
SHAWANO        SUNNY     70  20  15 E13G18    30.30F
OCONTO         SUNNY     65  25  22 E9        30.31S
STURGEON BAY   MOSUNNY   61  25  25 E12       30.34F
GREEN BAY      MOSUNNY   66  24  20 SE10G20   30.31F
MANITOWOC      PTSUNNY   56  34  43 VRB5      30.32F
APPLETON       PTSUNNY   61  37  41 SE13      30.30F
CLINTONVILLE   MOSUNNY   68  21  17 E12       30.29F
OSHKOSH        PTSUNNY   60  44  55 E10       30.29F
$$

WIZ032>034-041-042-053>061-052000-
SOUTHWEST WISCONSIN

CITY           SKY/WX    TMP DP  RH WIND       PRES   REMARKS
LA CROSSE      LGT RAIN  58  50  75 E9        30.23F
SPARTA         CLOUDY    59  43  54 E10       30.25S
VIROQUA        CLOUDY    51  51 100 E15       30.23F
BOSCOBEL       CLOUDY    55  51  86 VRB6      30.24S
PRAIRIE DU CHI CLOUDY    53  52  96 E9        30.21F FOG
PLATTEVILLE    CLOUDY    55  53  95 E16       30.21S
$$

WIZ056-057-062-063-064-067-068-052000-
SOUTH CENTRAL WISCONSIN

CITY           SKY/WX    TMP DP  RH WIND       PRES   REMARKS
REEDSBURG      CLOUDY    53  51  94 E6        30.26S
BARABOO/DELLS  NOT AVBL
LONE ROCK      CLOUDY    55  51  86 E13       30.24F
MINERAL POINT  LGT RAIN  55  52  88 E15G22    30.22S
MADISON        LGT RAIN  54  50  86 E13       30.26F
MIDDLETON      CLOUDY    55  52  92 E10       30.26F
WATERTOWN      CLOUDY    53  52  97 E12       30.27F
MONROE         LGT RAIN  52  52 100 E10G16    30.23F
JANESVILLE     CLOUDY    54  52  94 E14       30.24
$$

WIZ051-052-058>065-066-070>072-052000-
SOUTHEAST WISCONSIN

CITY           SKY/WX    TMP DP  RH WIND       PRES   REMARKS
MILWAUKEE      LGT RAIN  47  43  86 NE12      30.30S
WAUKESHA       LGT RAIN  46  45  93 E9        30.30F
MILWAUKEE/TIMM LGT RAIN  46  43  87 E10       30.31S
RACINE         CLOUDY    46  43  89 NE10      30.30F
BURLINGTON     CLOUDY    47  46  95 E12       30.27S
KENOSHA        CLOUDY    48  46  93 NE14      30.28S
FOND DU LAC    PTSUNNY   58  46  64 SE12      30.29F
SHEBOYGAN      PTSUNNY   57  44  62 SE9       30.31F
WEST BEND      CLOUDY    52  43  71 E8        30.30S
JUNEAU         CLOUDY    56  50  81 E10       30.29F
$$

LSZ147-162-052000-
LAKE SUPERIOR

STATION/POSITION TIME  TEMP    WIND        PRES    WAVE
                       AIR SEA DIR/SP/G            HT/PER
                 (UTC) (F)     (DEG/KT/KT) (MB)    (FT/S)
W MID LAKE BUOY  1850   43 36   30/  8/  8 1025.7F   0
DEVILS ISLAND    1900   44      70/  9/ 11 1025.1F
PORT WING        1828   45      10/ 17/ 26 1023.0F
SAXON HARBOR     1800   49        CALM     1024.4F
$$

LMZ867-665-643>646-052000-
LAKE MICHIGAN

STATION/POSITION TIME  TEMP    WIND        PRES    WAVE
                       AIR SEA DIR/SP/G            HT/PER
                 (UTC) (F)     (DEG/KT/KT) (MB)    (FT/S)
CHAMBERS ISLAND  1800   49     320/  4/  6 1027.1F
NORTHPORT PIER   1800   45     130/  4/  4 1027.1F
SISTER BAY       1802   61     130/ 12/ 14   N/A
KEWAUNEE LAKESHO 1800   47      30/  8/ 11 1026.1F
SHEBOYGAN LAKESH 1900   44      10/  8/  9 1027.2F
PORT WASHINGTON  1800   48      40/  6/  7 1027.4F
ATWATER BUOY     1800   44      10/  8/ 12 1027.2
MILWAUKEE LAKESH 1800   44      30/ 13/ 14   N/A
KENOSHA   LAKESH 1900   44      20/ 14/ 17 1025.1S
$$

TC  - TEMPERATURE IN CELSIUS
VSB - VISIBILITY IN STATUTE MILES
WCI - WIND CHILL INDEX
HX  - HEAT INDEX



USA.gov is the U.S. government's official web portal to all federal, state and local government web resources and services.